Home > Weather > Mobile > Past weeks

Flag for USA Past Weather in Mobile, Alabama, USA — Yesterday and Last 2 Weeks

Now
82 °F

Scattered clouds.


Feels Like: 84 °F
Forecast: 67 / 85 °F
Wind: 12 mph from South

Location: Mobile Downtown Airport

Current Time: May 25, 2016 at 1:54:20 PM

Latest Report: May 25, 2016 at 12:53 PM


Visibility: 10 mi

Pressure: 30.20 "Hg

Humidity: 60%

Dew Point: 67 °F

Location of MobileLocation

Past Weather in Mobile — Graph

°F

Mobile Temperature Yesterday

Maximum temperature yesterday: 83 °F (at 12:53 PM)
Minimum temperature yesterday: 62 °F (at 3:53 AM)
Average temperature yesterday: 73 °F

High & Low Weather Summary for the Past Weeks

 TemperatureHumidityPressure
High88 °F (May 21, 1:53 PM)100% (May 12, 2:53 AM)30.21 "Hg (May 12, 2:53 AM)
Low58 °F (May 23, 5:53 AM)25% (May 14, 3:53 PM)29.88 "Hg (May 17, 6:53 PM)
Average75 °F78%30.04 "Hg
* Reported May 10 12:00 PM — May 25 12:53 PM, Mobile, Weather by CustomWeather, © 2016

Note: Actual official high and low records may vary slightly from our data, if they occured in-between our weather recording intervals... More about our weather records

Advertising

Mobile Weather History for the Previous 24 Hours

Scroll right to see more
 ConditionsComfort  
Time TempWeatherWind HumidityBarometerVisibility
12:53 PM
Wed, May 25
82 °FScattered clouds.12 mph60%30.20 "Hg10 mi
11:53 AM81 °FScattered clouds.9 mph67%30.20 "Hg10 mi
10:53 AM80 °FScattered clouds.9 mph67%30.21 "Hg10 mi
9:53 AM79 °FScattered clouds.8 mph74%30.20 "Hg10 mi
8:53 AM76 °FPassing clouds.12 mph82%30.19 "Hg10 mi
7:53 AM74 °FPassing clouds.5 mph91%30.19 "Hg10 mi
6:53 AM72 °FPassing clouds.5 mph97%30.14 "Hg10 mi
5:53 AM66 °FFog.No wind100%30.13 "Hg6 mi
4:53 AM66 °FClear.6 mph100%30.13 "Hg10 mi
3:53 AM66 °FClear.3 mph100%30.11 "Hg10 mi
2:53 AM67 °FPassing clouds.No wind97%30.12 "Hg10 mi
1:53 AM68 °FClear.5 mph96%30.12 "Hg10 mi
12:53 AM67 °FClear.No wind97%30.13 "Hg10 mi
11:53 PM
Tue, May 24
67 °FClear.3 mph100%30.15 "Hg10 mi
10:53 PM68 °FClear.No wind93%30.16 "Hg10 mi
9:53 PM69 °FClear.No wind90%30.15 "Hg10 mi
8:53 PM73 °FClear.3 mph79%30.13 "Hg10 mi
7:53 PM76 °FSunny.No wind69%30.12 "Hg10 mi
6:53 PM78 °FSunny.5 mph64%30.11 "Hg10 mi
5:53 PM79 °FSunny.10 mph65%30.11 "Hg10 mi
4:53 PM81 °FSunny.8 mph60%30.11 "Hg10 mi
3:53 PM82 °FSunny.10 mph60%30.11 "Hg10 mi
2:53 PM82 °FSunny.9 mph51%30.12 "Hg10 mi
1:53 PM82 °FPassing clouds.7 mph53%30.13 "Hg10 mi
Weather by CustomWeather, © 2016

See weather overviewHow to use our weather pages